Weather History for KLBX - April, 2014

Change the Weather History Date:

Saturday, April 12, 2014

  Actual Average Record
Temperature  
Mean Temperature 72 °F -  
Max Temperature 79 °F 74 °F 82 °F (1999)
Min Temperature 66 °F 59 °F 44 °F (2013)
Cooling Degree Days 7    
Growing Degree Days 22 (Base 50)    
Moisture  
Dew Point 66 °F    
Average Humidity 83    
Maximum Humidity 93    
Minimum Humidity 62    
Precipitation  
Precipitation 0.00 in - - ()
Sea Level Pressure  
Sea Level Pressure 29.99 in    
Wind  
Wind Speed 13 mph (SSE)    
Max Wind Speed 22 mph    
Max Gust Speed 28 mph    
Visibility 10 miles    
Events      
Averages and records for this station are not official NWS values.
T = Trace of Precipitation, MM = Missing Value Source: NWS Daily Summary

Daily Weather History Graph

Daily Weather History Graph

Search for Another Location

Airport or City:

Trip Planner

Search our weather history database for the weather conditions in past years. The results will help you decide how hot, cold, wet, or windy it might be!

Date:

Astronomy

Apr. 12, 2014 Rise Set
Actual Time 6:59 AM CDT 7:46 PM CDT
Civil Twilight 6:34 AM CDT 8:10 PM CDT
Nautical Twilight 6:06 AM CDT 8:39 PM CDT
Astronomical Twilight 5:37 AM CDT 9:08 PM CDT
Moon 5:35 PM CDT (4/12) 5:14 AM CDT (4/12)
Length of Visible Light 13h 35m
Length of Day
12h 47m
Waxing Gibbous, 93% of the Moon is Illuminated
Apr 12
Waxing Gibbous
Apr 15
Full
Apr 22
Last Quarter
Apr 29
New
May 6
First Quarter

Hourly Weather History & Observations

Time (CDT) Temp. Dew Point Humidity Pressure Visibility Wind Dir Wind Speed Gust Speed Precip Events Conditions
12:53 AM 68.0 °F 64.0 °F 87% 30.04 in 10.0 mi SSE 9.2 mph - N/A   Clear
1:53 AM 66.9 °F 64.9 °F 93% 30.02 in 10.0 mi SSE 10.4 mph - N/A   Scattered Clouds
2:45 AM 69.1 °F 66.0 °F 90% 30.00 in 10.0 mi SSE 15.0 mph 20.7 mph N/A   Overcast
2:53 AM 68.0 °F 64.9 °F 90% 30.00 in 10.0 mi SSE 15.0 mph - N/A   Mostly Cloudy
3:53 AM 68.0 °F 66.0 °F 93% 29.99 in 10.0 mi South 12.7 mph - N/A   Partly Cloudy
4:20 AM 68.0 °F 66.0 °F 93% 29.99 in 10.0 mi SSE 11.5 mph - N/A   Mostly Cloudy
4:29 AM 68.0 °F 66.0 °F 93% 29.99 in 10.0 mi SSE 9.2 mph - N/A   Mostly Cloudy
4:45 AM 68.0 °F 66.0 °F 93% 29.99 in 10.0 mi SSE 10.4 mph - N/A   Mostly Cloudy
4:53 AM 68.0 °F 66.0 °F 93% 29.99 in 10.0 mi South 10.4 mph - N/A   Mostly Cloudy
5:09 AM 68.0 °F 66.0 °F 93% 29.99 in 10.0 mi South 11.5 mph - N/A   Mostly Cloudy
5:53 AM 68.0 °F 66.0 °F 93% 30.00 in 10.0 mi South 11.5 mph - N/A   Partly Cloudy
6:53 AM 68.0 °F 66.0 °F 93% 30.01 in 10.0 mi SSE 9.2 mph - N/A   Mostly Cloudy
7:53 AM 69.1 °F 66.9 °F 93% 30.00 in 10.0 mi SSE 9.2 mph - N/A   Scattered Clouds
8:00 AM 69.1 °F 66.9 °F 93% 30.00 in 10.0 mi SSE 10.4 mph - N/A   Scattered Clouds
8:53 AM 72.0 °F 68.0 °F 87% 30.03 in 10.0 mi South 15.0 mph - N/A   Mostly Cloudy
9:05 AM 72.0 °F 68.0 °F 87% 30.03 in 10.0 mi South 12.7 mph - N/A   Overcast
9:53 AM 73.9 °F 68.0 °F 82% 30.04 in 10.0 mi SSE 15.0 mph - N/A   Overcast
10:11 AM 73.9 °F 66.9 °F 79% 30.05 in 10.0 mi South 13.8 mph - N/A   Overcast
10:53 AM 75.9 °F 66.9 °F 74% 30.06 in 10.0 mi SSE 12.7 mph - N/A   Overcast
11:53 AM 77.0 °F 66.9 °F 71% 30.06 in 10.0 mi SSE 17.3 mph 24.2 mph N/A   Overcast
12:14 PM 78.1 °F 66.9 °F 68% 30.05 in 10.0 mi South 16.1 mph - N/A   Mostly Cloudy
12:40 PM 75.9 °F 66.9 °F 74% 30.05 in 10.0 mi SSE 19.6 mph - N/A   Overcast
12:53 PM 77.0 °F 66.9 °F 71% 30.04 in 10.0 mi SSE 19.6 mph - N/A   Overcast
1:53 PM 77.0 °F 66.0 °F 69% 30.02 in 10.0 mi South 19.6 mph - N/A   Overcast
2:45 PM 78.1 °F 66.0 °F 66% 29.99 in 10.0 mi SSE 21.9 mph 27.6 mph N/A   Mostly Cloudy
2:53 PM 77.0 °F 64.9 °F 66% 29.99 in 10.0 mi SE 16.1 mph - N/A   Overcast
3:53 PM 77.0 °F 64.9 °F 66% 29.96 in 10.0 mi SSE 19.6 mph - N/A   Mostly Cloudy
4:10 PM 78.1 °F 64.0 °F 62% 29.96 in 10.0 mi SE 16.1 mph - N/A   Scattered Clouds
4:53 PM 75.0 °F 64.0 °F 69% 29.95 in 10.0 mi SSE 19.6 mph 25.3 mph N/A   Clear
5:53 PM 75.0 °F 63.0 °F 66% 29.95 in 10.0 mi SSE 19.6 mph - N/A   Partly Cloudy
6:53 PM 72.0 °F 63.0 °F 73% 29.94 in 10.0 mi SSE 16.1 mph 23.0 mph N/A   Clear
7:53 PM 70.0 °F 63.0 °F 78% 29.94 in 10.0 mi SSE 17.3 mph 24.2 mph N/A   Clear
8:53 PM 68.0 °F 64.0 °F 87% 29.94 in 10.0 mi SE 10.4 mph - N/A   Partly Cloudy
9:14 PM 68.0 °F 64.9 °F 90% 29.94 in 10.0 mi SE 11.5 mph - N/A   Mostly Cloudy
9:53 PM 69.1 °F 64.9 °F 87% 29.95 in 10.0 mi SSE 13.8 mph - N/A   Mostly Cloudy
10:19 PM 69.1 °F 66.0 °F 90% 29.95 in 10.0 mi SSE 16.1 mph 25.3 mph N/A   Scattered Clouds
10:53 PM 69.1 °F 66.0 °F 90% 29.95 in 10.0 mi SSE 16.1 mph - N/A   Partly Cloudy
11:34 PM 69.1 °F 66.0 °F 90% 29.94 in 10.0 mi SSE 11.5 mph 19.6 mph N/A   Mostly Cloudy
11:53 PM 70.0 °F 66.0 °F 87% 29.94 in 10.0 mi SSE 12.7 mph - N/A   Overcast